Weather History for KOVL - February, 2013

Change the Weather History Date:

Sunday, February 17, 2013

  Actual Average (KRWF) Record (KRWF)
Temperature  
Mean Temperature 22 °F -  
Max Temperature 33 °F 29 °F 63 °F (1981)
Min Temperature 12 °F 12 °F -24 °F (1958)
Degree Days  
Heating Degree Days 42    
Moisture  
Dew Point 21 °F    
Average Humidity 85    
Maximum Humidity 93    
Minimum Humidity 74    
Precipitation  
Precipitation 0.00 in - - ()
Sea Level Pressure  
Sea Level Pressure 29.78 in    
Wind  
Wind Speed 12 mph (SE)    
Max Wind Speed 22 mph    
Max Gust Speed 29 mph    
Visibility 10 miles    
Events      
Averages and records for this station are not official NWS values.
T = Trace of Precipitation, MM = Missing Value Source: NWS Daily Summary

Daily Weather History Graph

Daily Weather History Graph

Search for Another Location

Airport or City:

Trip Planner

Search our weather history database for the weather conditions in past years. The results will help you decide how hot, cold, wet, or windy it might be!

Date:

Astronomy

Feb. 17, 2013 Rise Set
Actual Time 7:17 AM CST 5:51 PM CST
Civil Twilight 6:47 AM CST 6:21 PM CST
Nautical Twilight 6:13 AM CST 6:55 PM CST
Astronomical Twilight 5:39 AM CST 7:29 PM CST
Moon 10:50 AM CST (2/17) 1:07 AM CST (2/17)
Length of Visible Light 11h 34m
Length of Day
10h 34m
Waxing Crescent, 49% of the Moon is Illuminated
Feb 17
Waxing Crescent
Feb 17
First Quarter
Feb 25
Full
Mar 4
Last Quarter
Mar 11
New

Hourly Weather History & Observations

Time (CST) Temp. Windchill Dew Point Humidity Pressure Visibility Wind Dir Wind Speed Gust Speed Precip Events Conditions
12:10 AM 15.8 °F 5.1 °F 10.4 °F 79% 30.03 in 10.0 mi ESE 8.1 mph - N/A   Mostly Cloudy
12:31 AM 14.0 °F 3.9 °F 8.6 °F 79% 30.03 in 10.0 mi ESE 6.9 mph - N/A   Scattered Clouds
12:50 AM 12.2 °F -0.2 °F 8.6 °F 85% 30.02 in 10.0 mi ESE 9.2 mph - N/A   Clear
1:11 AM 12.2 °F -1.0 °F 8.6 °F 85% 30.01 in 10.0 mi SE 10.4 mph - N/A   Clear
1:30 AM 12.2 °F -0.2 °F 8.6 °F 85% 30.01 in 10.0 mi ESE 9.2 mph - N/A   Clear
1:51 AM 12.2 °F 0.7 °F 8.6 °F 85% 30.00 in 10.0 mi SE 8.1 mph - N/A   Clear
2:10 AM 12.2 °F -0.2 °F 8.6 °F 85% 30.00 in 10.0 mi SE 9.2 mph - N/A   Clear
2:31 AM 12.2 °F -0.2 °F 8.6 °F 85% 29.99 in 10.0 mi SE 9.2 mph - N/A   Clear
2:50 AM 12.2 °F -0.2 °F 8.6 °F 85% 29.99 in 10.0 mi ESE 9.2 mph - N/A   Clear
3:11 AM 12.2 °F 0.7 °F 10.4 °F 92% 29.99 in 10.0 mi ESE 8.1 mph - N/A   Clear
3:31 AM 12.2 °F 0.7 °F 8.6 °F 85% 29.99 in 10.0 mi ESE 8.1 mph - N/A   Clear
3:51 AM 12.2 °F -0.2 °F 10.4 °F 92% 29.98 in 10.0 mi SE 9.2 mph - N/A   Clear
4:10 AM 12.2 °F 1.7 °F 8.6 °F 85% 29.97 in 10.0 mi SE 6.9 mph - N/A   Clear
4:31 AM 12.2 °F -0.2 °F 8.6 °F 85% 29.96 in 10.0 mi SE 9.2 mph - N/A   Clear
4:50 AM 12.2 °F 0.7 °F 8.6 °F 85% 29.96 in 10.0 mi SE 8.1 mph - N/A   Clear
5:11 AM 12.2 °F -0.2 °F 10.4 °F 92% 29.96 in 10.0 mi SE 9.2 mph - N/A   Clear
5:30 AM 12.2 °F -1.0 °F 10.4 °F 92% 29.94 in 10.0 mi SE 10.4 mph - N/A   Scattered Clouds
5:51 AM 15.8 °F 3.4 °F 12.2 °F 86% 29.93 in 10.0 mi SE 10.4 mph - N/A   Scattered Clouds
6:10 AM 17.6 °F 5.0 °F 14.0 °F 86% 29.93 in 10.0 mi SE 11.5 mph - N/A   Mostly Cloudy
6:31 AM 17.6 °F 5.0 °F 14.0 °F 86% 29.92 in 10.0 mi SE 11.5 mph - N/A   Scattered Clouds
6:50 AM 15.8 °F 2.7 °F 12.2 °F 86% 29.91 in 10.0 mi SE 11.5 mph - N/A   Clear
7:11 AM 15.8 °F 3.4 °F 12.2 °F 86% 29.90 in 10.0 mi SE 10.4 mph - N/A   Clear
7:30 AM 15.8 °F 4.2 °F 12.2 °F 86% 29.90 in 10.0 mi SE 9.2 mph - N/A   Clear
7:51 AM 15.8 °F 4.2 °F 12.2 °F 86% 29.90 in 10.0 mi SE 9.2 mph - N/A   Clear
8:10 AM 17.6 °F 5.0 °F 14.0 °F 86% 29.89 in 10.0 mi SE 11.5 mph - N/A   Clear
8:31 AM 17.6 °F 5.7 °F 14.0 °F 86% 29.89 in 10.0 mi SE 10.4 mph - N/A   Clear
8:50 AM 19.4 °F 7.9 °F 17.6 °F 93% 29.89 in 10.0 mi SE 10.4 mph - N/A   Clear
9:11 AM 21.2 °F 8.9 °F 17.6 °F 86% 29.87 in 10.0 mi SE 12.7 mph - N/A   Clear
9:30 AM 21.2 °F 8.3 °F 17.6 °F 86% 29.86 in 10.0 mi SE 13.8 mph - N/A   Clear
9:51 AM 21.2 °F 7.3 °F 17.6 °F 86% 29.85 in 10.0 mi SE 16.1 mph - N/A   Clear
10:10 AM 23.0 °F 11.1 °F 19.4 °F 86% 29.85 in 10.0 mi SSE 12.7 mph - N/A   Clear
10:31 AM 23.0 °F 9.6 °F 19.4 °F 86% 29.84 in 10.0 mi SSE 16.1 mph - N/A   Clear
10:50 AM 24.8 °F 11.9 °F 19.4 °F 80% 29.83 in 10.0 mi SE 16.1 mph - N/A   Clear
11:11 AM 26.6 °F 14.7 °F 19.4 °F 74% 29.82 in 10.0 mi SSE 15.0 mph - N/A   Clear
11:31 AM 28.4 °F 17.0 °F 21.2 °F 74% 29.82 in 10.0 mi SSE 15.0 mph - N/A   Clear
11:50 AM 28.4 °F 18.0 °F 23.0 °F 80% 29.80 in 10.0 mi SE 12.7 mph - N/A   Clear
12:11 PM 30.2 °F 19.8 °F 24.8 °F 80% 29.79 in 10.0 mi SSE 13.8 mph - N/A   Clear
12:30 PM 30.2 °F 18.5 °F 24.8 °F 80% 29.77 in 10.0 mi SSE 17.3 mph - N/A   Clear
12:50 PM 30.2 °F 18.5 °F 24.8 °F 80% 29.76 in 10.0 mi SE 17.3 mph 21.9 mph N/A   Clear
1:11 PM 30.2 °F 18.1 °F 24.8 °F 80% 29.74 in 10.0 mi SE 18.4 mph - N/A   Clear
1:31 PM 32.0 °F 20.5 °F 26.6 °F 80% 29.73 in 10.0 mi SE 18.4 mph - N/A   Clear
1:51 PM 32.0 °F 20.8 °F 26.6 °F 80% 29.72 in 10.0 mi SE 17.3 mph - N/A   Clear
2:11 PM 32.0 °F 20.8 °F 26.6 °F 80% 29.71 in 10.0 mi SE 17.3 mph 23.0 mph N/A   Clear
2:31 PM 32.0 °F 20.8 °F 26.6 °F 80% 29.70 in 10.0 mi SE 17.3 mph 21.9 mph N/A   Clear
2:51 PM 33.8 °F 22.8 °F 30.2 °F 87% 29.69 in 10.0 mi SE 18.4 mph - N/A   Clear
3:11 PM 33.8 °F 22.5 °F 30.2 °F 87% 29.67 in 10.0 mi SE 19.6 mph 24.2 mph N/A   Clear
3:30 PM 33.8 °F 22.8 °F 30.2 °F 87% 29.65 in 10.0 mi SE 18.4 mph - N/A   Clear
3:51 PM 33.8 °F 22.2 °F 30.2 °F 87% 29.64 in 10.0 mi SE 20.7 mph - N/A   Clear
4:11 PM 33.8 °F 21.9 °F 30.2 °F 87% 29.63 in 10.0 mi SE 21.9 mph - N/A   Clear
4:31 PM 33.8 °F 23.5 °F 30.2 °F 87% 29.63 in 10.0 mi SE 16.1 mph - N/A   Clear
4:51 PM 33.8 °F 22.5 °F 30.2 °F 87% 29.62 in 10.0 mi SE 19.6 mph 25.3 mph N/A   Clear
5:11 PM 33.8 °F 22.8 °F 30.2 °F 87% 29.61 in 10.0 mi SE 18.4 mph 27.6 mph N/A   Clear
5:31 PM 33.8 °F 22.2 °F 30.2 °F 87% 29.61 in 10.0 mi SE 20.7 mph 25.3 mph N/A   Clear
5:51 PM 33.8 °F 22.8 °F 30.2 °F 87% 29.61 in 10.0 mi SSE 18.4 mph 25.3 mph N/A   Clear
6:10 PM 33.8 °F 22.8 °F 30.2 °F 87% 29.60 in 10.0 mi SSE 18.4 mph 25.3 mph N/A   Clear
6:31 PM 33.8 °F 22.2 °F 30.2 °F 87% 29.61 in 10.0 mi SSE 20.7 mph 28.8 mph N/A   Clear
6:50 PM 33.8 °F 22.2 °F 30.2 °F 87% 29.60 in 10.0 mi SE 20.7 mph 27.6 mph N/A   Clear
7:11 PM 33.8 °F 22.5 °F 30.2 °F 87% 29.60 in 10.0 mi SSE 19.6 mph 24.2 mph N/A   Clear
7:31 PM 33.8 °F 22.2 °F 30.2 °F 87% 29.58 in 10.0 mi SE 20.7 mph 25.3 mph N/A   Clear
7:50 PM 33.8 °F 22.5 °F 30.2 °F 87% 29.58 in 10.0 mi SE 19.6 mph - N/A   Clear
8:11 PM 33.8 °F 23.2 °F 30.2 °F 87% 29.57 in 10.0 mi SE 17.3 mph - N/A   Clear
8:30 PM 33.8 °F 23.9 °F 30.2 °F 87% 29.57 in 10.0 mi SE 15.0 mph - N/A   Clear
8:51 PM 33.8 °F 23.2 °F 30.2 °F 87% 29.57 in 10.0 mi SE 17.3 mph 21.9 mph N/A   Clear
9:11 PM 33.8 °F 23.9 °F 28.4 °F 81% 29.57 in 10.0 mi SE 15.0 mph 18.4 mph N/A   Clear
9:30 PM 33.8 °F 23.5 °F 30.2 °F 87% 29.56 in 10.0 mi SE 16.1 mph 19.6 mph N/A   Clear
9:51 PM 33.8 °F 23.5 °F 30.2 °F 87% 29.55 in 10.0 mi SE 16.1 mph 20.7 mph N/A   Clear
10:10 PM 32.0 °F 22.1 °F 28.4 °F 87% 29.55 in 10.0 mi SE 13.8 mph - N/A   Clear
10:31 PM 33.8 °F 24.8 °F 28.4 °F 81% 29.54 in 10.0 mi SSE 12.7 mph - N/A   Clear
10:51 PM 33.8 °F 25.8 °F 30.2 °F 87% 29.54 in 10.0 mi SSE 10.4 mph - N/A   Clear
11:10 PM 33.8 °F 25.3 °F 30.2 °F 87% 29.53 in 10.0 mi SSE 11.5 mph - N/A   Clear
11:31 PM 33.8 °F 25.8 °F 30.2 °F 87% 29.52 in 10.0 mi SSE 10.4 mph - N/A   Clear
11:50 PM 32.0 °F 24.2 °F 28.4 °F 87% 29.52 in 10.0 mi South 9.2 mph - N/A   Clear